Date String (YYYY-MM-DD hh:mm:ss) UTC,Instrument flags,Ambient pressure (hPa),Sample flow (lpm),Bypass flow (lpm),Sample temperature (°C),Ambient temperature (°C),ASC tube jacket temperature (°C),LED temperature (°C),Box temperature (°C),Sample RH (%),Span deviation,Mass concentration (μg/m³),Mass concentration (μg/m³),Mass concentration (μg/m³)
DateTimeUTC,F1_M11,P_M11,Q1_M11,Q2_M11,T1_M11,T2_M11,T3_M11,T4_M11,T5_M11,U1_M11,ZSPAN_M11,X0_M11,X2_M11,X1_M11
2022-09-20 02:00:00,,0825.4,5.00,0.00,29.7,27.3,00.0,38.3,31.4,11.3,0000.0,0008.38,0002.23,0001.79
2022-09-20 02:01:00,,0825.4,4.99,0.00,29.7,27.6,00.0,38.3,31.4,11.3,0000.0,0008.69,0002.23,0001.75
2022-09-20 02:02:00,,0825.4,5.01,0.00,29.7,27.9,00.0,38.3,31.5,11.2,0000.0,0008.89,0002.20,0001.71
2022-09-20 02:03:00,,0825.5,4.99,0.00,29.7,28.1,00.0,38.3,31.5,11.2,0000.0,0009.18,0002.21,0001.70
2022-09-20 02:04:00,,0825.4,5.01,0.00,29.7,28.2,00.0,38.4,31.6,11.2,0000.0,0009.14,0002.21,0001.67
2022-09-20 02:05:00,,0825.5,4.99,0.00,29.7,28.4,00.0,38.4,31.6,11.1,0000.0,0009.28,0002.22,0001.63
2022-09-20 02:06:00,,0825.5,5.01,0.00,29.8,28.5,00.0,38.4,31.7,10.9,0000.0,0009.41,0002.20,0001.61
2022-09-20 02:07:00,,0825.5,5.00,0.00,29.8,28.7,00.0,38.4,31.7,11.0,0000.0,0009.20,0002.14,0001.57
2022-09-20 02:08:00,,0825.5,4.99,0.00,29.8,28.8,00.0,38.4,31.7,10.8,0000.0,0008.97,0002.10,0001.56
2022-09-20 02:09:00,,0825.5,5.02,0.00,29.9,28.8,00.0,38.5,31.8,10.8,0000.0,0008.12,0002.08,0001.54
2022-09-20 02:10:00,,0825.5,4.99,0.00,29.9,28.4,00.0,38.5,31.8,10.7,0000.0,0008.01,0002.06,0001.52
2022-09-20 02:11:00,,0825.5,5.00,0.00,29.9,27.1,00.0,38.5,31.8,10.7,0000.0,0007.08,0002.05,0001.50
2022-09-20 02:12:00,,0825.5,5.00,0.00,29.9,26.9,00.0,38.4,31.7,10.6,0000.0,0006.51,0002.01,0001.48
2022-09-20 02:13:00,,0825.5,5.01,0.00,29.8,27.0,00.0,38.4,31.5,10.7,0000.0,0006.29,0002.04,0001.47
2022-09-20 02:14:00,,0825.5,5.00,0.00,29.7,27.3,00.0,38.4,31.4,10.7,0000.0,0005.35,0002.00,0001.45
2022-09-20 02:15:00,,0825.5,5.00,0.00,29.7,27.6,00.0,38.4,31.5,10.8,0000.0,0004.88,0001.96,0001.43
2022-09-20 02:16:00,,0825.5,5.01,0.00,29.7,27.9,00.0,38.4,31.5,10.7,0000.0,0004.55,0001.89,0001.41
2022-09-20 02:17:00,,0825.6,5.00,0.00,29.7,28.1,00.0,38.4,31.6,10.6,0000.0,0004.38,0001.85,0001.40
2022-09-20 02:18:00,,0825.6,5.00,0.00,29.8,28.3,00.0,38.4,31.6,10.6,0000.0,0004.67,0001.84,0001.39
2022-09-20 02:19:00,,0825.6,5.00,0.00,29.8,28.4,00.0,38.4,31.7,10.5,0000.0,0004.60,0001.81,0001.36
2022-09-20 02:20:00,,0825.6,5.02,0.00,29.8,28.5,00.0,38.4,31.7,10.5,0000.0,0004.63,0001.83,0001.36
2022-09-20 02:21:00,,0825.6,4.99,0.00,29.8,28.6,00.0,38.5,31.7,10.5,0000.0,0003.95,0001.79,0001.35
2022-09-20 02:22:00,,0825.6,5.00,0.00,29.9,28.7,00.0,38.5,31.8,10.4,0000.0,0003.52,0001.77,0001.33
2022-09-20 02:23:00,,0825.6,5.00,0.00,29.9,28.8,00.0,38.5,31.8,10.4,0000.0,0003.54,0001.75,0001.33
2022-09-20 02:24:00,,0825.6,4.98,0.00,29.9,28.3,00.0,38.5,31.8,10.3,0000.0,0003.23,0001.67,0001.32
2022-09-20 02:25:00,,0825.6,4.99,0.00,29.9,26.7,00.0,38.5,31.7,10.4,0000.0,0003.20,0001.65,0001.31
2022-09-20 02:26:00,,0825.6,5.01,0.00,29.8,26.1,00.0,38.4,31.6,10.5,0000.0,0003.16,0001.63,0001.31
2022-09-20 02:27:00,,0825.6,5.01,0.00,29.8,26.3,00.0,38.4,31.5,10.5,0000.0,0003.10,0001.61,0001.31
2022-09-20 02:28:00,,0825.7,5.00,0.00,29.7,26.6,00.0,38.4,31.3,10.5,0000.0,0002.86,0001.61,0001.31
2022-09-20 02:29:00,,0825.7,5.00,0.00,29.6,27.0,00.0,38.3,31.3,10.6,0000.0,0002.59,0001.62,0001.31
2022-09-20 02:30:00,,0825.7,4.99,0.00,29.6,27.3,00.0,38.3,31.3,10.7,0000.0,0002.83,0001.67,0001.32
2022-09-20 02:31:00,,0825.7,5.01,0.00,29.6,27.6,00.0,38.3,31.4,10.7,0000.0,0002.72,0001.64,0001.31
2022-09-20 02:32:00,,0825.7,4.99,0.00,29.6,27.9,00.0,38.3,31.4,10.6,0000.0,0002.78,0001.62,0001.31
2022-09-20 02:33:00,,0825.7,5.01,0.00,29.6,28.0,00.0,38.3,31.5,10.6,0000.0,0003.70,0001.60,0001.30
2022-09-20 02:34:00,,0825.8,4.99,0.00,29.6,28.2,00.0,38.3,31.5,10.6,0000.0,0003.86,0001.57,0001.29
2022-09-20 02:35:00,,0825.7,5.01,0.00,29.7,28.3,00.0,38.3,31.5,10.6,0000.0,0004.34,0001.57,0001.29
2022-09-20 02:36:00,,0825.8,5.00,0.00,29.7,28.4,00.0,38.3,31.6,10.5,0000.0,0005.57,0001.62,0001.28
2022-09-20 02:37:00,,0825.8,5.01,0.00,29.7,28.5,00.0,38.4,31.6,10.4,0000.0,0005.59,0001.63,0001.28
2022-09-20 02:38:00,,0826.1,4.99,0.00,29.8,28.6,00.0,38.4,31.7,10.4,0000.0,0006.44,0001.64,0001.27
2022-09-20 02:39:00,,0826.2,5.00,0.00,29.8,28.7,00.0,38.4,31.7,10.3,0000.0,0006.79,0001.67,0001.27
2022-09-20 02:40:00,,0825.9,5.02,0.00,29.8,28.8,00.0,38.4,31.7,10.2,0000.0,0006.89,0001.64,0001.25
2022-09-20 02:41:00,,0825.8,5.00,0.00,29.9,28.8,00.0,38.5,31.8,10.2,0000.0,0006.89,0001.64,0001.25
2022-09-20 02:42:00,,0825.7,5.00,0.00,29.9,28.9,00.0,38.5,31.9,10.2,0000.0,0006.87,0001.65,0001.25
2022-09-20 02:43:00,,0825.9,5.00,0.00,29.9,28.6,00.0,38.5,31.9,10.2,0000.0,0007.55,0001.68,0001.25
2022-09-20 02:44:00,,0825.8,5.00,0.00,29.9,27.2,00.0,38.5,31.8,10.1,0000.0,0007.58,0001.70,0001.25
2022-09-20 02:45:00,,0826.2,5.00,0.00,29.9,26.9,00.0,38.5,31.8,10.1,0000.0,0008.65,0001.76,0001.25
2022-09-20 02:46:00,,0826.1,5.00,0.00,29.8,27.0,00.0,38.4,31.5,10.1,0000.0,0008.82,0001.78,0001.25
2022-09-20 02:47:00,,0825.9,5.00,0.00,29.8,27.3,00.0,38.4,31.5,10.1,0000.0,0008.60,0001.79,0001.25
2022-09-20 02:48:00,,0826.0,5.00,0.00,29.8,27.6,00.0,38.4,31.5,10.2,0000.0,0008.60,0001.79,0001.23
2022-09-20 02:49:00,,0825.8,5.00,0.00,29.8,27.9,00.0,38.4,31.5,10.2,0000.0,0008.89,0001.81,0001.23
2022-09-20 02:50:00,,0825.8,4.99,0.00,29.8,28.1,00.0,38.4,31.6,10.1,0000.0,0008.79,0001.79,0001.21
2022-09-20 02:51:00,,0825.7,4.99,0.00,29.8,28.3,00.0,38.4,31.6,10.0,0000.0,0009.01,0001.79,0001.21
2022-09-20 02:52:00,,0825.8,5.01,0.00,29.8,28.4,00.0,38.4,31.7,10.0,0000.0,0009.16,0001.75,0001.20
2022-09-20 02:53:00,,0825.8,4.99,0.00,29.8,28.5,00.0,38.5,31.7,10.0,0000.0,0009.14,0001.71,0001.18
2022-09-20 02:54:00,,0825.8,5.00,0.00,29.8,28.6,00.0,38.5,31.7,10.0,0000.0,0008.70,0001.67,0001.17
2022-09-20 02:55:00,,0825.8,5.01,0.00,29.9,28.7,00.0,38.5,31.8,09.8,0000.0,0007.95,0001.61,0001.16
2022-09-20 02:56:00,,0825.9,5.00,0.00,29.9,28.8,00.0,38.5,31.8,09.7,0000.0,0006.46,0001.53,0001.14
2022-09-20 02:57:00,,0825.9,4.99,0.00,30.0,28.9,00.0,38.5,31.9,09.8,0000.0,0007.24,0001.52,0001.13
2022-09-20 02:58:00,,0825.9,4.99,0.00,30.0,28.9,00.0,38.6,31.9,09.9,0000.0,0006.62,0001.46,0001.12
2022-09-20 02:59:00,,0825.9,5.01,0.00,30.0,28.6,00.0,38.6,31.9,09.9,0000.0,0006.43,0001.43,0001.12
